EW1276 Weather Reports


time (UTC)temp
F
wind
direction
speed
knots
gust
knots
rain 1hr
in
rain 24hr
in
rain mn
in
humidity
%
barometer
mb
20260906171604 98 0 1.7 4.3 0.00 0.00 0.00 45 1015.9
20260906170100 97 320 1.7 7.0 0.00 0.00 0.00 47 1016.1
20260906164549 97 157 0.9 4.3 0.00 0.00 0.00 48 1016.3
20260906163046 96 109 0.9 6.1 0.00 0.00 0.00 48 1016.4
20260906161550 95 164 1.7 5.2 0.00 0.00 0.00 50 1016.5
20260906160051 93 317 1.7 6.1 0.00 0.00 0.00 55 1016.6
20260906154557 92 316 1.7 3.5 0.00 0.00 0.00 54 1016.5
20260906153051 92 319 0.9 3.5 0.00 0.00 0.00 56 1016.3
20260906151553 91 0 0.9 3.5 0.00 0.00 0.00 54 1016.4
20260906150050 90 294 0.9 2.6 0.00 0.00 0.00 59 1016.2
20260906144609 89 261 0.0 2.6 0.00 0.00 0.00 59 1016.2
20260906143101 87 0 0.0 2.6 0.00 0.00 0.00 63 1016.3
20260906141550 85 0 0.9 2.6 0.00 0.00 0.00 67 1016.3
20260906140045 82 0 0.0 0.9 0.00 0.00 0.00 71 1016.3
20260906134553 78 0 0.0 1.7 0.00 0.00 0.00 81 1016.2
20260906133104 76 0 0.0 1.7 0.00 0.00 0.00 85 1016.3
20260906131549 74 311 0.0 0.9 0.00 0.00 0.00 89 1016.2
20260906130105 73 0 0.0 0.9 0.00 0.00 0.00 92 1015.8
20260906124555 71 0 0.0 0.0 0.00 0.00 0.00 94 1015.7
20260906123049 71 0 0.0 0.0 0.00 0.00 0.00 94 1015.5
20260906121545 71 0 0.0 1.7 0.00 0.00 0.00 94 1015.6
20260906120053 70 0 0.0 0.0 0.00 0.00 0.00 93 1015.4
20260906114556 70 0 0.0 0.9 0.00 0.00 0.00 93 1015.2
20260906113048 71 0 0.0 0.0 0.00 0.00 0.00 92 1015.2
20260906111545 71 0 0.0 1.7 0.00 0.00 0.00 92 1015.1
20260906110051 71 0 0.0 0.0 0.00 0.00 0.00 92 1014.9
20260906104558 71 0 0.0 0.0 0.00 0.00 0.00 91 1014.8
20260906103048 71 0 0.0 0.0 0.00 0.00 0.00 91 1014.9
20260906101547 71 0 0.0 0.0 0.00 0.00 0.00 91 1014.9
20260906100050 72 0 0.0 0.0 0.00 0.00 0.00 91 1014.7
20260906094605 72 0 0.0 0.9 0.00 0.00 0.00 91 1014.8
20260906093122 72 0 0.0 0.0 0.00 0.00 0.00 90 1014.7
20260906091546 72 0 0.0 0.0 0.00 0.00 0.00 90 1014.6
20260906090053 73 0 0.0 0.0 0.00 0.00 0.00 89 1014.4
20260906084549 73 0 0.0 0.9 0.00 0.00 0.00 89 1014.3
20260906083049 73 0 0.0 0.9 0.00 0.00 0.00 89 1014.5
20260906081545 73 0 0.0 0.0 0.00 0.00 0.00 88 1014.6
20260906080053 74 0 0.0 0.0 0.00 0.00 0.00 88 1014.5
20260906074553 74 0 0.0 0.0 0.00 0.00 0.00 87 1014.4
20260906073050 74 0 0.0 0.0 0.00 0.00 0.00 87 1014.6
20260906071546 75 0 0.0 0.0 0.00 0.00 0.00 86 1014.7
20260906070050 75 0 0.0 0.9 0.00 0.00 0.00 85 1014.6
20260906064548 75 0 0.0 1.7 0.00 0.00 0.00 85 1014.7
20260906063051 76 0 0.0 0.0 0.00 0.00 0.00 84 1014.9
20260906061549 76 0 0.0 0.9 0.00 0.00 0.00 83 1014.8
20260906060047 76 0 0.0 0.9 0.00 0.00 0.00 83 1014.8
20260906054602 76 0 0.0 1.7 0.00 0.00 0.00 82 1014.7
20260906053050 77 319 1.7 2.6 0.00 0.00 0.00 79 1014.7
20260906051558 78 0 0.0 0.0 0.00 0.00 0.00 77 1014.5
20260906050047 78 0 0.0 0.0 0.00 0.00 0.00 75 1014.6
20260906044557 79 0 0.0 0.0 0.00 0.00 0.00 74 1014.4
20260906043048 79 0 0.0 0.0 0.00 0.00 0.00 73 1014.5
20260906041547 80 0 0.0 0.9 0.00 0.00 0.00 72 1014.6
20260906034550 81 0 0.0 0.0 0.00 0.00 0.00 69 1014.5
20260906033050 82 0 0.0 0.9 0.00 0.00 0.00 68 1014.5
20260906031544 83 0 0.0 1.7 0.00 0.00 0.00 66 1014.4
20260906030049 84 0 0.0 0.9 0.00 0.00 0.00 63 1014.2
20260906024551 86 304 0.0 1.7 0.00 0.00 0.00 61 1014.1
20260906023044 87 0 0.0 2.6 0.00 0.00 0.00 58 1013.7
20260906021551 88 0 0.0 0.9 0.00 0.00 0.00 57 1013.7
20260906020049 89 0 0.0 2.6 0.00 0.00 0.00 55 1013.4
20260906014620 89 0 0.0 1.7 0.00 0.00 0.00 54 1013.3
20260906013058 89 189 1.7 4.3 0.00 0.00 0.00 54 1013.2
20260906011548 89 0 0.9 1.7 0.00 0.00 0.00 55 1013.1
20260906010053 92 0 0.0 0.9 0.00 0.00 0.00 51 1012.9
20260906004606 93 0 0.0 2.6 0.00 0.00 0.00 47 1013.1
20260906003059 94 167 0.0 4.3 0.00 0.00 0.00 45 1013.1
20260906001549 95 0 0.0 0.9 0.00 0.00 0.00 43 1012.8
20260906000050 96 0 0.0 1.7 0.00 0.00 0.00 41 1012.8
20260905234544 98 0 0.0 2.6 0.00 0.00 0.00 38 1012.7
20260905233050 98 269 0.0 3.5 0.00 0.00 0.00 37 1012.7
20260905231548 99 331 1.7 5.2 0.00 0.00 0.00 36 1012.7
20260905230053 100 264 0.0 5.2 0.00 0.00 0.00 36 1012.7
20260905224548 100 309 0.9 3.5 0.00 0.00 0.00 37 1012.5
20260905223048 100 302 0.9 5.2 0.00 0.00 0.00 37 1012.5
20260905221611 101 0 0.0 3.5 0.00 0.00 0.00 38 1012.6
20260905220049 100 269 0.9 4.3 0.00 0.00 0.00 38 1012.8
20260905214547 100 303 2.6 7.0 0.00 0.00 0.00 38 1012.8
20260905213103 100 178 0.0 4.3 0.00 0.00 0.00 38 1012.9
20260905211550 100 360 1.7 5.2 0.00 0.00 0.00 38 1013.1
20260905210052 100 282 2.6 7.0 0.00 0.00 0.00 38 1013.4
20260905204547 100 336 1.7 4.3 0.00 0.00 0.00 39 1013.6
20260905203055 100 296 1.7 7.0 0.00 0.00 0.00 39 1013.8
20260905201609 100 182 1.7 9.6 0.00 0.00 0.00 39 1014.0
20260905200051 100 176 0.9 4.3 0.00 0.00 0.00 40 1014.2
20260905194549 99 288 2.6 7.0 0.00 0.00 0.00 42 1014.4
20260905193107 98 273 2.6 7.0 0.00 0.00 0.00 44 1014.6
20260905191549 97 161 0.0 4.3 0.00 0.00 0.00 44 1014.8
20260905190048 99 157 2.6 6.1 0.00 0.00 0.00 43 1015.1
20260905184557 98 157 3.5 8.7 0.00 0.00 0.00 43 1015.5
20260905183050 97 24 1.7 7.8 0.00 0.00 0.00 44 1015.5
20260905181605 98 165 0.9 5.2 0.00 0.00 0.00 43 1015.7
20260905180052 98 99 1.7 7.0 0.00 0.00 0.00 44 1016.0
20260905174602 97 189 1.7 9.6 0.00 0.00 0.00 47 1016.1
20260905173051 97 171 1.7 6.1 0.00 0.00 0.00 48 1016.3